GW2194 Weather Reports


Display with metric or nautical units.
time (UTC)temp
F
wind
direction
speed
MPH
gust
MPH
rain 1hr
in
rain 24hr
in
rain mn
in
humidity
%
barometer
mb
20260901192649 84 267 3.0 5.0 0.00 0.00 0.00 62 1022.8
20260901192144 83 344 0.0 3.0 0.00 0.00 0.00 68 1023.4
20260901191640 84 288 1.0 6.0 0.00 0.00 0.00 63 1023.0
20260901191136 83 226 4.0 5.0 0.00 0.00 0.00 67 1023.3
20260901190632 83 226 2.0 6.0 0.00 0.00 0.00 65 1023.4
20260901190131 83 153 4.0 10.0 0.00 0.00 0.00 64 1023.2
20260901185630 83 235 3.0 5.0 0.00 0.00 0.00 67 1023.4
20260901185128 83 235 3.0 5.0 0.00 0.00 0.00 67 1023.4
20260901184624 82 321 1.0 2.0 0.00 0.00 0.00 70 1023.4
20260901184119 83 264 1.0 5.0 0.00 0.00 0.00 68 1023.6
20260901183614 85 243 4.0 6.0 0.00 0.00 0.00 67 1023.5
20260901183109 85 243 4.0 6.0 0.00 0.00 0.00 67 1023.5
20260901182606 84 86 0.0 4.0 0.00 0.00 0.00 63 1023.7
20260901182105 84 205 2.0 4.0 0.00 0.00 0.00 64 1023.9
20260901181604 85 231 6.0 11.0 0.00 0.00 0.00 64 1023.9
20260901181058 84 256 5.0 9.0 0.00 0.00 0.00 66 1023.8
20260901180557 85 273 2.0 7.0 0.00 0.00 0.00 67 1023.5
20260901180052 86 281 1.0 4.0 0.00 0.00 0.00 66 1023.9
20260901175546 85 267 3.0 6.0 0.00 0.00 0.00 62 1023.9
20260901175046 85 319 3.0 7.0 0.00 0.00 0.00 62 1023.8
20260901174542 84 349 4.0 6.0 0.00 0.00 0.00 65 1024.0
20260901174038 83 8 4.0 9.0 0.00 0.00 0.00 66 1024.2
20260901173532 84 322 2.0 8.0 0.00 0.00 0.00 66 1023.9
20260901173028 85 3 3.0 5.0 0.00 0.00 0.00 65 1023.9
20260901172524 85 264 3.0 8.0 0.00 0.00 0.00 63 1023.9
20260901172022 85 218 2.0 9.0 0.00 0.00 0.00 64 1023.7
20260901171521 83 330 3.0 6.0 0.00 0.00 0.00 67 1024.0
20260901171020 84 275 2.0 6.0 0.00 0.00 0.00 68 1023.8
20260901170514 83 28 3.0 4.0 0.00 0.00 0.00 68 1023.7
20260901170009 85 323 3.0 4.0 0.00 0.00 0.00 67 1023.7
20260901165503 85 355 7.0 9.0 0.00 0.00 0.00 65 1023.6
20260901164959 85 231 3.0 8.0 0.00 0.00 0.00 63 1023.6
20260901164454 85 267 1.0 5.0 0.00 0.00 0.00 63 1023.6
20260901163949 84 232 6.0 6.0 0.00 0.00 0.00 67 1023.8
20260901163444 84 257 2.0 8.0 0.00 0.00 0.00 64 1023.4
20260901162943 84 236 9.0 9.0 0.00 0.00 0.00 66 1023.7
20260901162438 84 208 1.0 4.0 0.00 0.00 0.00 66 1023.8
20260901161937 84 359 2.0 6.0 0.00 0.00 0.00 68 1023.7
20260901161437 83 351 5.0 7.0 0.00 0.00 0.00 65 1023.6
20260901160932 82 26 4.0 5.0 0.00 0.00 0.00 68 1023.8
20260901160428 83 359 3.0 4.0 0.00 0.00 0.00 68 1023.4
20260901155927 83 333 5.0 5.0 0.00 0.00 0.00 68 1023.7
20260901155422 83 261 5.0 10.0 0.00 0.00 0.00 67 1023.5
20260901154918 84 223 6.0 8.0 0.00 0.00 0.00 65 1023.5
20260901154417 83 251 2.0 6.0 0.00 0.00 0.00 66 1023.1
20260901153913 83 49 2.0 8.0 0.00 0.00 0.00 68 1023.4
20260901153412 83 201 4.0 6.0 0.00 0.00 0.00 67 1023.3
20260901152906 82 220 2.0 4.0 0.00 0.00 0.00 70 1023.3
20260901152401 83 247 2.0 5.0 0.00 0.00 0.00 70 1023.5
20260901151856 82 235 0.0 2.0 0.00 0.00 0.00 73 1023.4
20260901151356 82 134 0.0 5.0 0.00 0.00 0.00 74 1023.4
20260901150855 81 239 1.0 5.0 0.00 0.00 0.00 73 1023.7
20260901150353 81 205 0.0 3.0 0.00 0.00 0.00 75 1023.5
20260901145851 80 241 2.0 5.0 0.00 0.00 0.00 75 1023.8
20260901145350 80 297 0.0 2.0 0.00 0.00 0.00 75 1023.6
20260901144846 80 212 0.0 5.0 0.00 0.00 0.00 76 1023.6
20260901144341 80 284 0.0 2.0 0.00 0.00 0.00 77 1023.8
20260901143836 79 119 0.0 0.0 0.00 0.00 0.00 78 1023.9
20260901143333 78 0 0.0 1.0 0.00 0.00 0.00 79 1023.8
20260901142829 77 67 2.0 2.0 0.00 0.00 0.00 79 1024.1
20260901142328 78 151 0.0 1.0 0.00 0.00 0.00 79 1024.2
20260901141823 77 142 0.0 1.0 0.00 0.00 0.00 82 1024.2
20260901141318 75 297 0.0 1.0 0.00 0.00 0.00 85 1024.1
20260901140817 74 142 0.0 0.0 0.00 0.00 0.00 87 1024.6
20260901140315 73 326 0.0 2.0 0.00 0.00 0.00 87 1024.2
20260901135810 72 302 0.0 2.0 0.00 0.00 0.00 88 1024.3
20260901135305 72 61 2.0 2.0 0.00 0.00 0.00 90 1024.3
20260901134801 71 49 0.0 3.0 0.00 0.00 0.00 90 1024.3
20260901134301 71 61 2.0 3.0 0.00 0.00 0.00 91 1024.6
20260901133755 69 51 0.0 2.0 0.00 0.00 0.00 96 1024.7
20260901133254 69 55 0.0 1.0 0.00 0.00 0.00 97 1024.7
20260901132753 70 65 2.0 3.0 0.00 0.00 0.00 97 1024.9
20260901132248 69 63 0.0 2.0 0.00 0.00 0.00 97 1024.7
20260901131743 68 55 3.0 3.0 0.00 0.00 0.00 97 1024.3
20260901131242 68 343 0.0 2.0 0.00 0.00 0.00 97 1024.6
20260901130737 67 337 0.0 1.0 0.00 0.00 0.00 97 1024.6
20260901130236 67 37 0.0 1.0 0.00 0.00 0.00 97 1024.7
20260901125735 67 50 1.0 2.0 0.00 0.00 0.00 97 1025.0
20260901125229 67 25 1.0 2.0 0.00 0.00 0.00 97 1024.7
20260901124719 66 56 0.0 1.0 0.00 0.00 0.00 97 1025.0
20260901124219 67 57 0.0 1.0 0.00 0.00 0.00 97 1024.7
20260901123718 67 322 0.0 0.0 0.00 0.00 0.00 97 1024.6
20260901123214 67 326 0.0 0.0 0.00 0.00 0.00 97 1024.8
20260901122712 67 55 0.0 0.0 0.00 0.00 0.00 97 1024.7
20260901122207 67 55 0.0 0.0 0.00 0.00 0.00 97 1024.6
20260901121701 67 322 0.0 0.0 0.00 0.00 0.00 97 1024.9
20260901121156 67 0 0.0 0.0 0.00 0.00 0.00 97 1024.7
20260901120650 67 0 0.0 0.0 0.00 0.00 0.00 97 1024.7
20260901120146 66 309 0.0 0.0 0.00 0.00 0.00 97 1024.7
20260901115641 66 322 0.0 0.0 0.00 0.00 0.00 97 1024.3
20260901115137 66 50 0.0 0.0 0.00 0.00 0.00 97 1024.3
20260901114634 66 46 0.0 1.0 0.00 0.00 0.00 97 1024.6
20260901114133 66 322 0.0 0.0 0.00 0.00 0.00 97 1024.3
20260901113631 66 332 0.0 2.0 0.00 0.00 0.00 97 1024.2
20260901113127 66 353 0.0 1.0 0.00 0.00 0.00 97 1024.4
20260901112621 66 11 1.0 1.0 0.00 0.00 0.00 97 1024.2
20260901112115 65 129 0.0 1.0 0.00 0.00 0.00 97 1024.1
20260901111615 65 287 0.0 1.0 0.00 0.00 0.00 97 1024.3
20260901111114 65 129 0.0 0.0 0.00 0.00 0.00 97 1024.0
20260901110609 65 89 0.0 1.0 0.00 0.00 0.00 97 1024.2
20260901110104 65 304 0.0 1.0 0.00 0.00 0.00 97 1024.0
20260901105601 65 180 0.0 1.0 0.00 0.00 0.00 97 1023.9
20260901105054 65 178 0.0 1.0 0.00 0.00 0.00 97 1024.0
20260901104551 65 279 1.0 2.0 0.00 0.00 0.00 97 1024.0
20260901104045 65 269 0.0 1.0 0.00 0.00 0.00 97 1024.0
20260901103540 65 74 1.0 2.0 0.00 0.00 0.00 97 1023.9
20260901103035 65 230 0.0 0.0 0.00 0.00 0.00 97 1023.6
20260901102529 65 19 0.0 0.0 0.00 0.00 0.00 97 1023.6
20260901102024 65 322 0.0 0.0 0.00 0.00 0.00 97 1023.7
20260901101520 65 32 0.0 0.0 0.00 0.00 0.00 97 1023.8
20260901101014 65 50 0.0 0.0 0.00 0.00 0.00 97 1023.9
20260901100514 65 352 0.0 0.0 0.00 0.00 0.00 97 1023.7
20260901100008 65 322 0.0 0.0 0.00 0.00 0.00 97 1023.7
20260901095506 65 0 0.0 0.0 0.00 0.00 0.00 97 1023.8
20260901095004 65 0 0.0 0.0 0.00 0.00 0.00 97 1023.6
20260901094459 65 310 0.0 0.0 0.00 0.00 0.00 97 1023.8
20260901093959 65 310 0.0 0.0 0.00 0.00 0.00 97 1023.8
20260901093458 65 348 0.0 0.0 0.00 0.00 0.00 97 1023.8
20260901092953 66 322 0.0 0.0 0.00 0.00 0.00 97 1023.8
20260901092449 66 304 0.0 0.0 0.00 0.00 0.00 97 1023.8
20260901091945 66 304 0.0 0.0 0.00 0.00 0.00 97 1023.5
20260901091440 66 304 0.0 0.0 0.00 0.00 0.00 97 1023.7
20260901090935 66 237 0.0 0.0 0.02 0.00 0.00 97 1023.7
20260901090434 66 224 0.0 0.0 0.02 0.00 0.00 97 1023.6
20260901085930 66 10 0.0 0.0 0.00 0.00 0.00 97 1023.7
20260901085426 66 17 0.0 1.0 0.00 0.00 0.00 97 1023.5
20260901084922 66 339 0.0 0.0 0.00 0.00 0.00 97 1023.6
20260901084418 67 322 0.0 0.0 0.00 0.00 0.00 97 1023.7
20260901083914 66 269 1.0 2.0 0.00 0.00 0.00 97 1023.8
20260901083414 67 37 0.0 0.0 0.00 0.00 0.00 97 1023.9
20260901082912 67 32 0.0 0.0 0.00 0.00 0.00 97 1023.6
20260901082407 67 32 0.0 1.0 0.00 0.00 0.00 97 1023.7
20260901081902 67 3 0.0 1.0 0.00 0.00 0.00 97 1023.7
20260901081358 67 358 0.0 2.0 0.00 0.00 0.00 97 1023.5
20260901080857 67 347 2.0 2.0 0.00 0.00 0.00 97 1023.4
20260901080352 67 336 0.0 0.0 0.00 0.00 0.00 97 1023.5
20260901075851 67 49 0.0 0.0 0.00 0.00 0.00 97 1023.6
20260901075347 67 49 0.0 0.0 0.00 0.00 0.00 97 1023.6
20260901074841 67 47 0.0 1.0 0.00 0.00 0.00 97 1023.5
20260901074336 67 322 0.0 0.0 0.00 0.00 0.00 97 1023.9
20260901073826 67 224 0.0 1.0 0.00 0.00 0.00 97 1023.9
20260901073322 67 329 0.0 0.0 0.00 0.00 0.00 97 1023.8
20260901072818 67 217 0.0 0.0 0.00 0.00 0.00 97 1023.7
20260901072317 67 217 0.0 0.0 0.00 0.00 0.00 97 1023.8
20260901071813 67 22 0.0 0.0 0.00 0.00 0.00 97 1023.9
20260901071311 67 58 0.0 1.0 0.00 0.00 0.00 97 1023.8
20260901070810 67 44 0.0 0.0 0.00 0.00 0.00 97 1024.0
20260901070306 67 50 0.0 0.0 0.00 0.00 0.00 97 1023.6
20260901065805 66 50 0.0 0.0 0.00 0.00 0.00 97 1023.9
20260901065300 66 309 0.0 0.0 0.00 0.00 0.00 97 1023.8
20260901064756 66 292 1.0 1.0 0.00 0.00 0.00 97 1023.9
20260901064252 66 55 0.0 1.0 0.00 0.00 0.00 97 1023.9
20260901063750 66 309 0.0 0.0 0.00 0.00 0.00 97 1023.6
20260901063245 66 352 0.0 0.0 0.00 0.00 0.00 97 1023.7
20260901062741 66 315 0.0 0.0 0.00 0.00 0.00 97 1023.9
20260901062237 66 246 0.0 1.0 0.00 0.00 0.00 97 1023.8
20260901061733 66 50 0.0 0.0 0.00 0.00 0.00 97 1024.1
20260901061232 66 322 0.0 0.0 0.00 0.00 0.00 97 1024.2
20260901060728 66 315 0.0 0.0 0.00 0.00 0.00 97 1023.8
20260901060223 66 322 0.0 0.0 0.00 0.00 0.00 97 1024.0
20260901055718 66 310 0.0 1.0 0.00 0.00 0.00 97 1024.2
20260901055215 66 256 0.0 0.0 0.00 0.00 0.00 97 1024.0
20260901054712 66 22 0.0 0.0 0.00 0.00 0.00 97 1024.2
20260901054208 66 336 0.0 0.0 0.00 0.00 0.00 97 1024.0
20260901053703 66 19 1.0 1.0 0.00 0.00 0.00 97 1024.3
20260901053153 66 293 0.0 0.0 0.00 0.00 0.00 97 1024.1
20260901052648 65 301 0.0 2.0 0.00 0.00 0.00 97 1024.1
20260901052144 65 38 0.0 1.0 0.00 0.00 0.00 97 1024.1
20260901051643 66 269 0.0 0.0 0.00 0.00 0.00 97 1024.1
20260901051142 66 269 0.0 0.0 0.00 0.00 0.00 97 1024.0
20260901050637 66 269 0.0 0.0 0.00 0.00 0.00 97 1024.2
20260901050132 66 269 0.0 0.0 0.00 0.00 0.00 97 1024.1
20260901045627 66 235 0.0 1.0 0.00 0.00 0.00 97 1024.0
20260901045122 66 341 0.0 1.0 0.00 0.00 0.00 97 1024.3
20260901044618 66 13 1.0 2.0 0.00 0.00 0.00 97 1024.1
20260901044114 65 322 0.0 0.0 0.00 0.00 0.00 97 1024.0
20260901043609 66 299 0.0 0.0 0.00 0.00 0.00 97 1024.1
20260901043104 66 299 0.0 0.0 0.00 0.00 0.00 97 1024.1
20260901042603 66 36 0.0 1.0 0.00 0.00 0.00 97 1024.0
20260901042059 66 309 0.0 0.0 0.00 0.00 0.00 97 1024.0
20260901041554 66 309 0.0 0.0 0.00 0.00 0.00 97 1024.1
20260901041049 66 309 0.0 0.0 0.00 0.00 0.00 97 1024.1
20260901040548 66 309 0.0 0.0 0.00 0.00 0.00 97 1024.1
20260901040043 66 310 0.0 1.0 0.00 0.00 0.00 97 1024.3
20260901035541 66 322 0.0 0.0 0.00 0.09 0.09 97 1024.1
20260901035040 66 13 0.0 1.0 0.00 0.09 0.09 97 1024.2
20260901034539 66 214 0.0 0.0 0.00 0.09 0.09 97 1024.3
20260901034034 67 304 0.0 0.0 0.00 0.09 0.09 97 1024.4
20260901033533 67 32 0.0 0.0 0.00 0.09 0.09 97 1024.3
20260901033028 67 32 0.0 0.0 0.00 0.09 0.09 97 1024.4
20260901032526 67 322 0.0 1.0 0.00 0.09 0.09 97 1024.6
20260901032022 67 41 1.0 1.0 0.00 0.09 0.09 97 1024.3
20260901031517 67 257 1.0 1.0 0.00 0.09 0.09 97 1024.4
20260901031013 67 37 0.0 0.0 0.00 0.09 0.09 97 1024.6
20260901030512 67 304 0.0 1.0 0.00 0.09 0.09 97 1024.7
20260901030007 67 32 0.0 0.0 0.00 0.09 0.09 97 1024.7
20260901025501 67 32 0.0 0.0 0.02 0.09 0.09 97 1024.7
20260901025001 67 230 0.0 0.0 0.02 0.09 0.09 97 1024.7
20260901024456 67 255 0.0 0.0 0.00 0.09 0.09 97 1024.9
20260901023954 67 13 0.0 0.0 0.00 0.09 0.09 97 1024.8
20260901023449 67 13 0.0 0.0 0.00 0.09 0.09 97 1024.7
20260901022944 67 13 0.0 0.0 0.00 0.09 0.09 97 1024.6
20260901022440 67 13 0.0 0.0 0.00 0.09 0.09 97 1024.4
20260901021934 68 76 0.0 0.0 0.00 0.09 0.09 97 1024.6
20260901021430 68 309 0.0 0.0 0.00 0.09 0.09 97 1024.6
20260901020925 68 1 1.0 2.0 0.00 0.09 0.09 97 1024.7
20260901020421 68 1 1.0 2.0 0.00 0.09 0.09 97 1024.6
20260901015919 68 315 0.0 1.0 0.00 0.09 0.09 97 1024.2
20260901015416 68 44 0.0 0.0 0.00 0.09 0.09 97 1024.4
20260901014915 68 44 0.0 0.0 0.00 0.09 0.09 97 1024.3
20260901014412 68 38 0.0 1.0 0.00 0.09 0.09 97 1024.2
20260901013907 68 313 0.0 1.0 0.00 0.09 0.09 97 1024.3
20260901013402 68 311 0.0 1.0 0.00 0.09 0.09 97 1024.2
20260901012858 68 13 0.0 0.0 0.00 0.09 0.09 97 1024.3
20260901012353 68 13 0.0 0.0 0.00 0.09 0.09 97 1024.4
20260901011848 68 13 0.0 1.0 0.00 0.09 0.09 97 1024.2
20260901011344 68 202 0.0 0.0 0.00 0.09 0.09 97 1024.3
20260901010842 68 202 0.0 0.0 0.00 0.09 0.09 97 1024.2
20260901010337 68 269 0.0 0.0 0.00 0.09 0.09 97 1024.2
20260901005836 68 37 0.0 0.0 0.00 0.09 0.09 97 1024.2
20260901005331 68 17 0.0 1.0 0.00 0.09 0.09 97 1024.1
20260901004827 68 69 0.0 0.0 0.00 0.09 0.09 97 1024.0
20260901004320 68 69 0.0 0.0 0.00 0.09 0.09 96 1023.8
20260901003815 68 10 0.0 2.0 0.00 0.09 0.09 96 1023.7
20260901003310 68 343 2.0 2.0 0.00 0.09 0.09 96 1023.6
20260901002808 68 348 2.0 3.0 0.00 0.09 0.09 96 1023.6
20260901002305 68 259 0.0 2.0 0.00 0.09 0.09 96 1023.5
20260901001758 68 50 0.0 0.0 0.00 0.09 0.09 96 1023.4
20260901001253 68 89 0.0 0.0 0.00 0.09 0.09 96 1023.4
20260901000743 68 44 0.0 1.0 0.00 0.09 0.09 96 1023.7
20260901000238 69 251 2.0 2.0 0.00 0.09 0.09 96 1023.4
20260831235731 69 354 1.0 2.0 0.00 0.09 0.09 95 1023.5
20260831235228 69 324 1.0 2.0 0.00 0.09 0.09 95 1023.5
20260831234727 69 32 0.0 0.0 0.00 0.09 0.09 95 1023.3
20260831234222 69 142 0.0 0.0 0.00 0.09 0.09 95 1023.4
20260831233717 69 256 0.0 0.0 0.00 0.09 0.09 95 1023.4
20260831233213 69 343 0.0 2.0 0.00 0.09 0.09 95 1023.8
20260831232712 69 357 1.0 2.0 0.00 0.09 0.09 95 1023.6
20260831232209 69 343 1.0 2.0 0.00 0.09 0.09 95 1023.6
20260831231705 69 37 0.0 0.0 0.00 0.09 0.09 95 1023.8
20260831231201 69 246 0.0 0.0 0.00 0.09 0.09 95 1023.9
20260831230701 69 246 0.0 0.0 0.00 0.09 0.09 94 1023.8
20260831230156 69 259 1.0 2.0 0.00 0.09 0.09 94 1023.9
20260831225655 69 72 1.0 2.0 0.00 0.09 0.09 94 1023.9
20260831225150 69 260 0.0 2.0 0.00 0.09 0.09 93 1023.9
20260831224645 70 351 2.0 2.0 0.00 0.09 0.09 93 1023.7
20260831224140 70 337 2.0 2.0 0.00 0.09 0.09 92 1023.8
20260831223636 70 233 0.0 2.0 0.00 0.09 0.09 91 1024.0
20260831223132 71 269 0.0 2.0 0.02 0.09 0.09 90 1024.1
20260831222627 71 142 0.0 1.0 0.33 0.09 0.09 88 1024.1
20260831222123 73 111 4.0 5.0 0.47 0.08 0.08 85 1024.3
20260831221619 75 214 0.0 6.0 0.12 0.02 0.02 81 1024.4
20260831221114 77 3 11.0 15.0 0.00 0.00 0.00 81 1024.4
20260831220608 77 316 0.0 1.0 0.00 0.00 0.00 83 1023.8
20260831220104 77 0 1.0 2.0 0.00 0.00 0.00 82 1023.8
20260831215559 77 283 1.0 1.0 0.00 0.00 0.00 81 1023.8
20260831215054 78 309 0.0 0.0 0.00 0.00 0.00 78 1023.3
20260831214547 79 309 0.0 0.0 0.00 0.00 0.00 78 1023.4
20260831214042 79 333 0.0 0.0 0.00 0.00 0.00 74 1023.8
20260831213538 80 323 1.0 1.0 0.00 0.00 0.00 72 1023.5
20260831213028 81 297 0.0 0.0 0.00 0.00 0.00 69 1023.8
20260831212524 81 293 0.0 0.0 0.00 0.00 0.00 68 1023.4
20260831212019 82 255 0.0 0.0 0.00 0.00 0.00 66 1023.6
20260831211514 83 231 1.0 3.0 0.00 0.00 0.00 65 1023.6
20260831211013 84 227 3.0 5.0 0.00 0.00 0.00 61 1023.8
20260831210508 85 234 5.0 5.0 0.00 0.00 0.00 60 1023.7
20260831210004 87 198 1.0 2.0 0.00 0.00 0.00 58 1023.7
20260831205459 85 258 0.0 3.0 0.00 0.00 0.00 57 1023.5
20260831204954 84 215 3.0 5.0 0.00 0.00 0.00 57 1023.8
20260831204449 83 284 0.0 4.0 0.00 0.00 0.00 60 1023.3
20260831203947 84 215 0.0 3.0 0.00 0.00 0.00 62 1023.6
20260831203441 82 238 2.0 2.0 0.00 0.00 0.00 62 1023.6
20260831202940 83 263 0.0 4.0 0.00 0.00 0.00 61 1023.8
20260831202435 83 238 3.0 3.0 0.00 0.00 0.00 64 1023.9
20260831201929 82 238 0.0 1.0 0.00 0.00 0.00 70 1023.9
20260831201428 82 15 0.0 1.0 0.00 0.00 0.00 65 1024.0
20260831200924 82 304 0.0 0.0 0.00 0.00 0.00 67 1023.9
20260831200419 82 342 1.0 2.0 0.00 0.00 0.00 67 1023.7
20260831195913 83 44 1.0 1.0 0.00 0.00 0.00 70 1024.1
20260831195409 82 248 0.0 2.0 0.00 0.00 0.00 65 1023.9
20260831194904 82 238 3.0 3.0 0.00 0.00 0.00 65 1023.9
20260831194359 82 326 0.0 3.0 0.00 0.00 0.00 66 1024.3
20260831193859 82 247 3.0 5.0 0.00 0.00 0.00 66 1024.3
20260831193354 81 261 0.0 3.0 0.00 0.00 0.00 69 1024.3
20260831192850 80 278 0.0 2.0 0.00 0.00 0.00 70 1024.2